Temp
19 19 18 17 17 17 16 16 15 15 14 14 13 12 12 11 11 11 11 11 11 10
19 19 18 18 18 17 17 15 14 14 13 13 12 11 11 10 10 11 10 10 10 10
18 18 18 18 17 17 15 14 13 13 12 12 11 10 10 10 10 10 10 9 9 9
18 18 17 16 15 15 14 13 12 12 11 11 10 10 9 9 9 9 9 9 9 9
17 16 15 15 14 13 13 12 12 11 10 10 9 9 9 8 8 8 8 8 8 8
15 15 14 13 13 12 12 11 11 10 10 9 9 8 8 8 7 7 7 7 6 6
14 14 13 13 12 11 11 10 10 9 9 8 8 8 7 7 6 5 5 5 4 4
13 13 12 11 10 10 10 10 9 8 8 8 7 7 6 5 4 4 4 4 3 2
12 11 10 10 10 9 9 9 9 8 7 7 6 6 5 5 4 3 3 2 1 1
11 10 9 9 8 8 8 8 8 7 7 7 6 5 4 3 3 2 3 2 2 1
10 9 8 8 8 8 7 7 7 7 7 5 4 3 3 2 2 3 3 2 2 1
9 8 8 7 7 7 7 7 6 6 5 4 4 3 2 2 2 2 1 1 1 0
8 7 7 7 7 6 6 6 5 5 4 5 4 3 2 1 1 1 0 0 -0 -1
7 7 6 6 5 5 5 5 5 5 4 4 3 2 2 1 1 -0 -1 -1 -1 -1
Height
758 763 769 776 782 789 794 799 803 806 809 812 814 816 818 819 820 821 820 821 821 821
752 758 765 773 780 785 791 795 800 804 806 809 812 814 816 817 818 818 818 819 820 819
750 756 763 768 775 780 787 791 796 801 804 807 810 812 813 814 815 815 816 817 817 816
749 753 760 763 772 776 784 788 794 798 802 805 807 809 810 811 812 813 815 815 815 813
746 750 757 760 772 775 783 788 792 796 799 802 804 806 807 810 811 813 814 814 813 812
742 746 754 761 766 777 779 784 789 794 797 800 802 804 805 808 810 812 812 812 810 810
738 743 752 758 764 774 776 780 786 791 794 797 800 802 804 807 809 811 811 810 809 809
734 742 749 754 764 769 774 778 783 788 793 796 798 800 802 806 807 808 808 807 807 807
733 739 745 753 761 765 771 776 781 786 790 793 794 799 802 804 804 804 805 804 804 804
731 736 743 752 757 763 768 774 779 784 788 790 794 798 800 802 802 802 802 801 801 800
729 735 743 751 755 760 765 771 775 781 786 789 793 797 798 798 799 800 800 801 800 799
726 734 743 748 752 757 764 766 773 778 783 789 792 795 796 797 797 797 797 799 797 796
724 733 741 746 750 755 759 766 774 779 783 787 790 792 793 794 795 795 795 795 793 792
723 733 740 745 749 752 760 768 773 777 782 785 787 790 791 791 792 792 792 791 789 789
Wind_Speed
33 32 31 30 28 26 24 23 21 15 12 8 5 4 2 2 3 5 6 9 11 12
33 33 31 30 28 25 24 25 21 15 12 9 6 5 2 1 4 6 7 8 11 12
38 35 35 30 30 28 24 21 19 15 13 10 7 4 2 2 3 5 8 9 10 11
36 34 34 33 28 28 24 20 19 16 13 10 7 4 2 0 2 3 5 8 9 11
36 36 34 30 27 25 23 20 18 15 12 10 7 5 3 2 2 4 7 8 10 12
35 36 33 31 29 25 25 21 17 14 12 10 8 6 4 2 1 3 6 8 11 14
33 38 34 33 29 26 23 21 17 14 12 10 8 6 6 3 1 4 7 9 11 12
35 34 36 33 28 26 23 20 18 16 13 11 9 8 8 2 3 5 8 9 9 10
33 35 33 32 28 25 23 21 18 16 15 12 10 8 5 6 5 4 7 9 11 12
32 32 31 30 28 26 24 21 19 17 14 11 9 5 5 6 2 2 6 10 11 13
31 30 29 28 27 27 25 23 21 16 15 13 6 3 3 3 4 3 5 8 11 13
32 31 29 28 28 26 25 21 19 18 13 11 9 5 1 2 0 2 7 9 12 14
32 31 28 28 28 24 23 20 17 15 13 13 11 7 1 4 1 4 8 13 14 15
31 29 30 27 27 25 21 20 18 18 15 14 10 6 2 5 5 6 13 14 17 20
Wind_Direction
182 175 166 162 168 169 169 169 164 161 161 163 164 186 224 251 291 312 324 321 310 312
176 164 163 167 170 167 164 157 157 161 157 165 164 176 203 267 303 320 319 311 311 305
166 165 167 168 159 157 151 157 157 157 159 160 166 176 197 270 317 321 315 306 306 307
170 170 165 152 154 155 153 152 155 160 162 162 168 167 157 299 336 310 305 303 302 309
172 156 154 149 155 153 155 156 158 160 161 159 157 155 148 98 326 327 311 311 314 317
158 154 152 153 152 157 157 155 156 159 157 154 155 151 139 116 309 296 314 323 328 328
158 155 157 155 153 163 155 153 155 154 153 155 153 146 136 118 253 321 322 328 324 322
156 156 156 151 157 157 156 153 153 151 150 154 150 163 175 187 313 325 337 325 320 320
151 151 148 153 157 154 153 151 151 152 153 150 153 182 221 282 307 336 322 325 321 323
151 148 151 155 152 153 153 152 150 151 146 167 166 199 264 287 326 6 324 323 322 321
152 149 153 155 153 154 154 152 150 151 160 142 168 236 233 71 59 329 316 319 317 323
155 154 157 155 152 152 153 146 154 164 161 165 184 200 175 84 117 304 325 330 325 327
154 155 156 153 150 150 146 146 153 155 161 164 170 180 178 119 77 5 332 331 341 335
150 154 154 148 149 140 146 155 159 158 161 158 163 169 143 55 45 351 340 341 339 335